Piney Island, NC

5:54 AM EST on December 14, 2017 (GMT -0500)
Piney Island

Weather History for KNBT - October, 2013

Change the Weather History Date:

Sunday, October 13, 2013

  Actual Average (KMRH) Record (KMRH)
Temperature  
Mean Temperature 74 °F -  
Max Temperature 80 °F 76 °F 87 °F (1990)
Min Temperature 69 °F 53 °F 40 °F (1988)
Cooling Degree Days 8    
Growing Degree Days 24 (Base 50)    
Moisture  
Dew Point 69 °F    
Average Humidity 89    
Maximum Humidity 96    
Minimum Humidity 76    
Precipitation  
Precipitation 0.02 in - - ()
Sea Level Pressure  
Sea Level Pressure 30.07 in    
Wind  
Wind Speed 9 mph (NNE)    
Max Wind Speed 21 mph    
Max Gust Speed 26 mph    
Visibility 9 miles    
Events Rain    
Averages and records for this station are not official NWS values.
T = Trace of Precipitation, MM = Missing Value Source: NWS Daily Summary

Daily Weather History Graph

Daily Weather History Graph

Search for Another Location

Airport or City:

Trip Planner

Search our weather history database for the weather conditions in past years. The results will help you decide how hot, cold, wet, or windy it might be!

Date:

Astronomy

Oct. 13, 2013 Rise Set
Actual Time 7:10 AM EDT 6:33 PM EDT
Civil Twilight 6:44 AM EDT 6:58 PM EDT
Nautical Twilight 6:15 AM EDT 7:27 PM EDT
Astronomical Twilight 5:46 AM EDT 7:57 PM EDT
Moon 3:12 PM EDT (10/13) 1:30 AM EDT (10/13)
Length of Visible Light 12h 13m
Length of Day
11h 22m
Waxing Gibbous, 69% of the Moon is Illuminated
Oct 13
Waxing Gibbous
Oct 18
Full
Oct 26
Last Quarter
Nov 3
New
Nov 10
First Quarter

Hourly Weather History & Observations

Time (EDT) Temp. Dew Point Humidity Pressure Visibility Wind Dir Wind Speed Gust Speed Precip Events Conditions
12:03 AM 70.0 °F 68.0 °F 93% 30.03 in 7.0 mi North 5.8 mph - N/A   Overcast
12:41 AM 70.0 °F 68.0 °F 93% 30.02 in 7.0 mi North 4.6 mph - N/A   Overcast
12:56 AM 70.0 °F 68.0 °F 93% 30.04 in 8.0 mi North 4.6 mph - N/A   Overcast
1:03 AM 70.0 °F 68.0 °F 93% 30.02 in 9.0 mi North 4.6 mph - N/A   Overcast
1:22 AM 70.0 °F 68.0 °F 93% 30.02 in 10.0 mi NNE 4.6 mph - N/A   Overcast
1:56 AM 70.0 °F 68.0 °F 93% 30.04 in 8.0 mi North 4.6 mph - N/A   Overcast
2:29 AM 69.1 °F 68.0 °F 96% 30.02 in 10.0 mi NNE 6.9 mph - N/A   Mostly Cloudy
3:04 AM 70.0 °F 66.9 °F 90% 30.02 in 10.0 mi NNE 9.2 mph - N/A   Overcast
3:19 AM 69.1 °F 66.9 °F 93% 30.02 in 10.0 mi NNE 9.2 mph - N/A   Overcast
3:56 AM 69.1 °F 66.9 °F 93% 30.04 in 10.0 mi North 5.8 mph - N/A   Overcast
4:56 AM 69.1 °F 66.0 °F 90% 30.04 in 10.0 mi North 6.9 mph - N/A   Overcast
5:20 AM 70.0 °F 66.9 °F 90% 30.03 in 10.0 mi North 9.2 mph - N/A   Overcast
5:56 AM 70.0 °F 66.9 °F 90% 30.05 in 10.0 mi North 9.2 mph - N/A   Overcast
6:22 AM 70.0 °F 66.9 °F 90% 30.04 in 10.0 mi NNW 8.1 mph - N/A   Overcast
6:36 AM 70.0 °F 66.9 °F 90% 30.05 in 10.0 mi NNW 9.2 mph - N/A   Overcast
6:47 AM 70.0 °F 66.9 °F 90% 30.05 in 10.0 mi NNW 8.1 mph - 0.00 in Rain Light Rain
6:56 AM 69.1 °F 66.9 °F 93% 30.07 in 10.0 mi NNW 10.4 mph - 0.00 in Rain Light Rain
7:56 AM 69.1 °F 68.0 °F 96% 30.08 in 10.0 mi North 9.2 mph - 0.02 in   Overcast
8:56 AM 70.0 °F 68.0 °F 93% 30.09 in 10.0 mi North 11.5 mph - N/A   Overcast
9:56 AM 71.1 °F 68.0 °F 90% 30.10 in 10.0 mi North 12.7 mph - N/A   Overcast
10:56 AM 72.0 °F 69.1 °F 91% 30.11 in 10.0 mi North 12.7 mph - N/A   Overcast
11:11 AM 73.0 °F 69.1 °F 87% 30.10 in 10.0 mi North 13.8 mph 21.9 mph N/A   Overcast
11:54 AM 75.2 °F 69.8 °F 83% 30.09 in 10.0 mi North 16.1 mph 23.0 mph N/A   Mostly Cloudy
11:56 AM 75.0 °F 69.1 °F 82% 30.10 in 10.0 mi North 16.1 mph 23.0 mph N/A   Mostly Cloudy
12:56 PM 77.0 °F 70.0 °F 79% 30.09 in 10.0 mi North 13.8 mph 21.9 mph N/A   Clear
1:56 PM 78.1 °F 70.0 °F 76% 30.07 in 10.0 mi North 12.7 mph - N/A   Clear
2:56 PM 77.0 °F 71.1 °F 82% 30.06 in 10.0 mi NNE 15.0 mph - N/A   Clear
3:56 PM 77.0 °F 70.0 °F 79% 30.06 in 10.0 mi NE 17.3 mph 24.2 mph 0.00 in Rain Light Rain
4:56 PM 75.9 °F 70.0 °F 82% 30.06 in 10.0 mi NE 13.8 mph 23.0 mph 0.00 in Rain Light Rain
5:56 PM 73.9 °F 70.0 °F 87% 30.07 in 10.0 mi NE 15.0 mph - 0.00 in Rain Light Rain
6:56 PM 73.0 °F 71.1 °F 93% 30.08 in 9.0 mi NE 12.7 mph - 0.00 in   Clear
7:56 PM 73.0 °F 71.1 °F 93% 30.09 in 9.0 mi NNE 13.8 mph - N/A   Clear
8:22 PM 73.0 °F 70.0 °F 90% 30.08 in 9.0 mi NNE 12.7 mph - N/A   Mostly Cloudy
8:56 PM 73.0 °F 70.0 °F 90% 30.10 in 9.0 mi NNE 11.5 mph - N/A   Overcast
9:56 PM 73.0 °F 70.0 °F 90% 30.11 in 9.0 mi NE 16.1 mph - N/A   Overcast
10:35 PM 73.0 °F 70.0 °F 90% 30.10 in 8.0 mi NE 20.7 mph 26.5 mph N/A   Overcast
10:56 PM 73.0 °F 70.0 °F 90% 30.12 in 8.0 mi NE 17.3 mph 25.3 mph N/A   Overcast
11:56 PM 73.0 °F 70.0 °F 90% 30.11 in 9.0 mi NNE 15.0 mph 21.9 mph N/A   Overcast